Regional Weather Roundup
Issued by NWS

Home | Current Version | Previous Version | Graphics & Text | Print | Product List | Glossary On
Versions: 1 2 3 4 5 6 7 8 9 10 11 12 13 14 15 16 17 18 19 20 21 22 23 24 25 26 27 28 29 30 31 32 33 34 35 36 37 38 39 40 41 42 43 44 45 46 47 48 49 50
000
ASUS43 KIND 221259
RWRIN

WEATHER ROUNDUP FOR INDIANA
NATIONAL WEATHER SERVICE INDIANAPOLIS IN
800 AM EST SAT NOV 22 2014

NOTE: "FAIR" INDICATES FEW OR NO CLOUDS BELOW 12,000 FEET WITH NO
SIGNIFICANT WEATHER AND/OR OBSTRUCTIONS TO VISIBILITY.

* - STATION DOES NOT REPORT WEATHER SUCH AS PRECIPITATION OR FOG.

+ - STATION NOT QUALITY CONTROLLED BY THE NATIONAL WEATHER SERVICE.
    USE DATA WITH CAUTION...ESPECIALLY DEWPOINT AND RELATIVE
    HUMIDITY OBSERVATIONS.

INZ001>003-010>013-019-020-221400-
NORTHWEST INDIANA

CITY           SKY/WX    TMP DP  RH WIND       PRES   REMARKS
GARY /AIRPORT/ CLOUDY    37  34  87 S12       30.07F FOG
VALPARAISO     NOT AVBL

$$

LMZ046-743>745-221400-
SOUTHERN LAKE MICHIGAN

STATION/POSITION TIME  TEMP WIND        PRES
                       AIR  DIR/SP/G
                 (UTC) (F)  (DEG/KT/KT) (MB)
MICHIGAN CITY    1200   35  170/ 15/ 17   N/A

$$

INZ004-005-014>016-021>024-221400-
NORTH CENTRAL INDIANA

CITY           SKY/WX    TMP DP  RH WIND       PRES   REMARKS
ELKHART        CLOUDY    34  32  93 W7        30.10  FOG     WCI  28
GOSHEN         CLOUDY    35  33  92 S6        30.11S WCI  30
PERU/GRISSOM   CLOUDY    38  38  99 SW13      30.13S
SOUTH BEND     CLOUDY    35  32  88 S13       30.09F WCI  26

$$

INZ006>009-017-018-025>027-221400-
NORTHEAST INDIANA

CITY           SKY/WX    TMP DP  RH WIND       PRES   REMARKS
ANGOLA *+      CLOUDY    34  32  93 SW7       30.11F WCI  28
FORT WAYNE     CLOUDY    37  33  85 SW10      30.14F

$$

INZ028-029-035-036-043>045-051>053-221400-
WEST CENTRAL INDIANA

CITY           SKY/WX    TMP DP  RH WIND       PRES   REMARKS
GREENCASTLE +  CLOUDY    45  34  65 S10G17    30.17F
LAFAYETTE      CLOUDY    40  33  76 S7        30.13F
TERRE HAUTE    CLOUDY    44  33  65 S12       30.18F

$$

INZ030>032-037>040-046>048-054>057-064-065-221400-
CENTRAL INDIANA

CITY           SKY/WX    TMP DP  RH WIND       PRES   REMARKS
CP ATTERBURY + CLOUDY    36  32  87 SE8       30.23S
FRANKFORT +    MOCLDY    39  34  84 S8        30.15S
INDIANAPOLIS   CLOUDY    38  33  82 SE7       30.17F
-EAGLE CREEK   CLOUDY    41  33  73 S7        30.18S
KOKOMO *+      CLOUDY    37  32  81 S16       30.14F
MT COMFORT *+  MOCLDY    36  27  69 S12       30.19F
SHELBYVILLE    CLOUDY    37  30  75 S13       30.21F

$$

INZ033-034-041-042-049-050-058-059-221400-
EAST CENTRAL INDIANA

CITY           SKY/WX    TMP DP  RH WIND       PRES   REMARKS
MUNCIE         CLOUDY    41  34  76 SW10G18   30.17F

$$

INZ060-061-067>069-081>083-085>088-221400-
SOUTHWEST INDIANA

CITY           SKY/WX    TMP DP  RH WIND       PRES   REMARKS
EVANSVILLE     CLOUDY    50  38  63 S10       30.25S
HUNTINGBURG *+ PTCLDY    45  36  70 S13       30.25S

$$

INZ062-063-066-070>080-084-089>092-221400-
SOUTH CENTRAL AND SOUTHEAST INDIANA

CITY           SKY/WX    TMP DP  RH WIND       PRES   REMARKS
BLOOMINGTON    CLOUDY    39  35  86 SE8       30.21S
SEYMOUR +      CLOUDY    37  32  81 SE6       30.25

$$




USA.gov is the U.S. government's official web portal to all federal, state and local government web resources and services.